www.pogodaiklimat.ru

Погода и климат >> Архив погоды >> Канада >> Dubawnt Lake


ПОГОДА в Dubawnt Lake

  • Прогноз погоды в Dubawnt Lake
  • Монитор погоды в Dubawnt Lake
  • Климат города

АРХИВ ПОГОДЫ в Dubawnt Lake

Время (UTC), дата Ветер
(напр.,м/с)
 
Видим.   Явления Облачность Т
(С)
Тd
(С)
f
(%)
Тe
(С)
Тes
(С)
Комфортность P
(гПа)
Po
(гПа)
Тmin
(С)
Tmax
(С)
R
(мм)
R24
(мм)
S
(см)
06 12.08 ЮЗ 2 14 км ясно +17.0 +11.2 69 +18 +18 1018.4 957.6 +8.1 +28.4
09 12.08 ЮЗ 2 16 км ясно +12.7 +9.5 81 +12 +12 1018.8 957.9
12 12.08 ЮЗ 2 16 км ясно +11.8 +9.1 84 +11 +11 1019.1 958.1 +11.2 +28.4
15 12.08 ЮЗ 2 16 км ясно +21.6 +11.5 53 +24 +28 комфорт 1018.9 958.1
18 12.08 Ю 4 16 км ясно +27.0 +8.2 30 +27 +33 жарко 1017.6 957.0 +11.2 +27.5
21 12.08 Ю 5 16 км ясно +28.6 +7.2 26 +28 +32 жарко 1016.6 955.9
00 13.08 ЮЗ 5 16 км ясно +28.1 +7.0 26 +27 +29 жарко 1015.0 954.3 +11.2 +28.9
03 13.08 ЮВ 2 14 км ясно +21.4 +8.8 44 +23 +23 комфорт 1014.4 953.9
06 13.08 Ю 3 2800 м дым ясно +15.9 +9.2 64 +16 +16 1014.5 954.0 +11.2 +28.9 19
09 13.08 ЮЗ 1 2800 м дым ясно +11.9 +8.5 80 +13 +13 1014.6 954.0
12 13.08 В 1 3600 м дымка ясно +10.4 +7.9 84 +11 +11 1014.6 953.9 +9.9 +28.9
15 13.08 Ю 3 6000 м дым ясно +23.1 +11.2 47 +25 +29 комфорт 1013.6 953.2
18 13.08 Ю 5 16 км 3/0 2000 м
[]
+27.0 +8.2 30 +27 +31 жарко 1012.7 952.3 +9.9 +27.4
21 13.08 Ю 5 11 км ясно +27.2 +7.9 30 +27 +31 жарко 1011.9 951.4
00 14.08 Ю 4 16 км ясно +26.2 +7.5 30 +26 +27 жарко 1010.7 950.1 +9.9 +27.7
03 14.08 ЮВ 3 2400 м дым ясно +20.2 +9.3 49 +22 +22 комфорт 1010.1 949.9
06 14.08 Ю 1 1600 м дым н/о +14.4 +9.6 73 +15 +15 1010.7 950.3 +9.9 +27.7 18
09 14.08 Ю 1 1600 м дым н/о +13.4 +10.1 80 +14 +14 1011.0 950.6
12 14.08 Ю 2 1000 м дымка 5/5 50 м
[]
+11.0 +8.7 86 +10 +10 1011.2 950.6 +11.0 +27.7
15 14.08 Ю 4 3200 м дым ясно +22.3 +11.9 52 +25 +28 комфорт 1010.8 950.5
18 14.08 Ю 7 16 км 3/3 1500 м
[]
+26.3 +9.3 34 +27 +29 жарко 1010.2 949.8 +11.0 +26.3
21 14.08 Ю 7 16 км ясно +27.4 +8.6 31 +27 +29 жарко 1009.2 948.9
00 15.08 Ю 5 16 км ясно +26.3 +8.5 32 +26 +27 жарко 1009.0 948.5 +11.0 +28.1
03 15.08 Ю 3 4800 м дым 3/3 600 м
[]
+20.4 +9.8 51 +22 +22 комфорт 1009.2 949.0
06 15.08 ЮВ 2 2400 м дым ясно +13.8 +9.3 74 +14 +14 1009.2 948.9 +11.0 +28.1 191
09 15.08 ЮВ 2 2400 м дым ясно +13.9 +10.4 79 +14 +14 1009.2 948.9
12 15.08 В 3 16 км ясно +12.6 +10.2 85 +11 +12 1009.1 948.7 +11.7 +28.1
15 15.08 ЮВ 5 16 км ясно +21.2 +11.9 55 +23 +26 комфорт 1008.0 947.8
18 15.08 ЮВ 7 14 км ясно +24.2 +11.5 45 +26 +28 жарко 1007.9 947.5 +11.7 +24.5
21 15.08 ЮВ 8 16 км ясно +25.0 +10.6 40 +26 +28 жарко 1006.3 946.1
00 16.08 ЮВ 7 16 км 3/0
[]
+22.8 +11.7 50 +25 +26 комфорт 1006.1 945.7 +11.7 +25.6
03 16.08 ЮВ 5 14 км 5/0
[]
+19.0 +14.1 73 +20 +20 1005.5 945.4
06 16.08 В 2 16 км 5/0
[]
+14.4 +11.4 82 +14 +14 1005.5 945.3 +11.7 +25.6 221
09 16.08 В 2 8000 м дымка ясно +12.4 +11.2 92 +11 +11 1004.8 944.6
12 16.08 ЮВ 1 2000 м дымка 10/10 100 м
[]
+11.7 +11.6 99 +11 +11 1005.1 944.7 +10.5 +25.6
15 16.08 ЮЗ 3 2400 м дымка {осадки} 10/10 200 м
[]
+14.4 +13.6 95 +13 +13 1005.0 944.6
18 16.08 З 4 16 км слаб. дождь {осадки} 9/9 300 м
[]
+16.2 +13.6 85 +15 +16 1004.6 944.1 +10.5 +16.9 3
21 16.08 ЮЗ 3 8000 м слаб. дождь {осадки} 10/10 1500 м
[]
+14.4 +13.6 95 +13 +13 1005.8 945.0
00 17.08 З 5 14 км {осадки} 10/10 300 м
[]
+14.0 +13.2 95 +12 +12 1006.5 945.6 +10.5 +16.9 9
03 17.08 З 3 16 км слаб. дождь {осадки} 10/10 1500 м
[]
+13.4 +12.6 95 +12 +12 1007.0 946.2
06 17.08 З 3 16 км {осадки} 10/0
[]
+12.4 +9.5 82 +11 +11 1006.8 946.0 +10.5 +16.9 1 0
09 17.08 ЮЗ 3 16 км 10/0
[]
+12.9 +9.5 80 +12 +12 1006.6 945.8
12 17.08 З 3 16 км 9/0
[]
+12.5 +8.3 76 +11 +11 1006.9 946.0 +11.9 +16.9
15 17.08 З 4 16 км 9/0
[]
+15.1 +7.3 60 +14 +16 1007.0 946.2
18 17.08 З 6 14 км ясно +20.0 +7.0 43 +21 +24 комфорт 1006.9 946.3 +11.9 +20.2
21 17.08 З 7 16 км ясно +22.0 +5.8 35 +23 +25 комфорт 1007.3 946.8
00 18.08 СЗ 7 16 км ясно +22.2 +4.8 32 +22 +23 комфорт 1007.6 947.1 +11.9 +22.9
03 18.08 ЮЗ 1 16 км 10/0
[]
+16.1 +8.9 62 +17 +17 1008.3 947.6
06 18.08 ЮЗ 1 16 км 10/0
[]
+13.1 +9.3 78 +13 +13 1008.5 947.9 +11.9 +22.9 201
09 18.08 ЮЗ 2 16 км ясно +8.6 +7.4 92 +7 +7 1008.0 947.3
12 18.08 Ю 2 8000 м дымка ясно +8.1 +7.2 94 +6 +6 1008.2 947.4 +7.6 +22.9
15 18.08 Ю 2 16 км ясно +17.6 +10.5 63 +18 +23 1007.6 947.0
18 18.08 ЮЗ 5 16 км 9/0 2000 м
[]
+23.9 +8.3 37 +24 +27 комфорт 1005.7 945.4 +7.6 +24.3
21 18.08 ЮЗ 5 16 км 5/5 1500 м
[]
+23.9 +7.9 36 +24 +26 комфорт 1005.1 944.6
00 19.08 З 4 16 км ясно +24.6 +8.6 36 +25 +26 комфорт 1004.8 944.4 +7.6 +25.0

 

Местоположение метеостанции Dubawnt Lake (Канада): широта 63.23 долгота -101.70 высота над уровнем моря 237 м.

В архиве по умолчанию представлена погода в Dubawnt Lake за последнюю неделю. Архивные данные за месяц целиком и за предыдущие месяцы, начиная с января 2011 года, Вы можете получить, выбрав интересующий диапазон дат из раскрывающегося списка и нажав кнопку "Ввод!".

Внимание! Время в таблицах - всемирное. Для получения местного времени необходимо прибавить поправку, которая в Dubawnt Lake равна -6 ч.

Смотрите также архив погоды в соседних городах и на ближайших метеорологических станциях:

Погода в Hanbury River ARS (Канада) (176 км)
Погода в Robertson Lake (Канада) (211 км)
Погода в Baker Lake Airport (Канада) (302 км)
Погода в Baker Lake Climate (Канада) (305 км)
Погода в Fort Reliance (aut) (Канада) (379 км)
Погода в Porter Lake (Канада) (387 км)
Погода в Back River MAPS (Канада) (402 км)
Погода в Lustel Ke A (Канада) (461 км)
Погода в Arviat Climate (Канада) (462 км)
Погода в Arviat (Канада) (462 км)

Пояснения к столбцам:

Ветер - указаны скорость ветра в м/с - средняя за 10 мин, порывы в срок и между сроками (в фигурных скобках) и направление, откуда дует ветер: С - северный, СВ - северо-восточный, В - восточный, ЮВ - юго-восточный, Ю - южный, ЮЗ - юго-западный, З - западный, СЗ - северо-западный.
Видимость - горизонтальная дальность видимости в метрах или километрах. При видимости от 1 до 10 км при отсутствии осадков обычно наблюдается дымка, при ухудшении видимости до 1 км и менее - туман. В сухую погоду видимость может ухудшаться дымом, пылью или мглою.
Явления - указаны атмосферные явления, наблюдавшиеся в срок или в последний час перед сроком; фигурными скобками обозначены явления, наблюдавшиеся между сроками (за 1-3 часа до срока); квадратными скобками обозначены град или гололедные отложения с указанием их диаметра в мм.
Облачность - указаны через наклонную черту общая и нижняя облачность в баллах и высота нижней границы облаков в метрах; квадратными скобками обозначены формы облаков: Ci - перистые, Cs - перисто-слоистые, Cc - перисто-кучевые, Ac - высококучевые, As - высокослоистые, Sc - слоисто-кучевые, Ns - слоисто-дождевые, Cu - кучевые, Cb - кучево-дождевые. Подробнее классификацию облаков см. в Атласе облаков (PDF).
T - Температура воздуха - температура, измеренная на высоте 2 м над землей.
Td - Температура точки росы - температура, при понижении до которой содержащийся в воздухе водяной пар достигнет насыщения.
f - Относительная влажность воздуха - влажноcть воздуха, измеренная на высоте 2 м над землей.
Te - Эффективная температура - температура, которую ощущает одетый по сезону человек в тени. Характеристика душности погоды. При расчете учитывается влияние влажности воздуха и скорости ветра на теплоощущения человека.
Tes - Эффективная температура на солнце - температура, которую ощущает человек, с поправкой на солнечный нагрев. Характеристика знойности погоды. Зависит от высоты солнца над горизонтом, облачности и скорости ветра. Ночью, в пасмурную погоду, а также при ветре 12 м/с и более поправка равна нулю.
P - Атмосферное давление - приведенное к уровню моря атмосферное давление.
Po - Атмосферное давление - измеренное на уровне метеостанции атмосферное давление.
Tmin - Минимальная температура - минимум температуры воздуха на высоте 2 м над землей.
Tmax - Максимальная температура - максимум температуры воздуха на высоте 2 м над землей.
R - Количество осадков - Количество выпавших осадков за период времени, мм. При наведении курсора мыши на число - период времени, за который выпало указанное количество осадков.
R24 - Количество осадков - Количество выпавших осадков за 24 часа, мм.
S - Снежный покров - Высота снежного покрова, см. При наведении курсора мыши на число - состояние снежного покрова и степень покрытия местности в баллах.